DECAYED

STARLINK-1079, 44937 (Decayed)

Orbit data source: Space-Track

STARLINK-1079, 44937 was a payload satellite owned by SpaceX/Seattle (US) in LEO that was launched on Tue, 07 Jan 2020 UTC via an FALCON 9 launch vehicle from the Air Force Eastern Test Range (AFETR). Payload-class satellites include a variety of spacecraft equipped with specific instruments for various scientific and technological missions. These include communications satellites like Starlink; space stations such as the ISS; scientific satellites like the Hubble; Earth observation satellites from companies like Planet Labs, Umbra, and HawkEye 360; GPS; miniature CubeSats for education and research; and military/defense satellites.

Not visible in the next 10 days
Identifier
44937, 2020-001Z
Orbit
Decayed
Country
Flag of USUS
Related business
Manufacturer
SpaceX/Seattle
Mission
Decayed Commercial Communications
Bus & Motor
STARLINK, Unknown motor
Mass
260 kg wet, ~248 kg dry
Launch date (UTC)
2020-01-07 (6 years ago)
Launch vehicle
FALCON 9
Launch site
Air Force Eastern Test Range (AFETR)
Object type
Payload
Rocket body
Debris
Shape & HBR
Box + 1 Pan, 10.1 m
Radar Cross Section
13.562 m², Large (>1 m²)

Expand to show TLE details & history
Last TLE update: 3 months ago

TLE from 3 months ago
0 STARLINK-1079
1 44937U 20001Z   25223.15914530  .14159615  12592-4  25855-3 0  9995
2 44937  53.0111  63.9346 0011018 283.0154 181.6410 16.46700183310185
Epoch: 2025-08-11T03:49Z
TLE epoch observation values (Epoch: 2025-08-11T03:49:10.153Z)
Latitude
50.76037°
Longitude
160.28628°
Altitude
161.153 km
Speed
7.812 km/s
True Right ascension
11h 49m 47s
True Declination
50° 34' 35"
Sunlit
Object was in daylight at epoch
Visualization orbit readout
Latitude
Unknown
Longitude
Unknown
Altitude
Unknown
Speed
Unknown
Apparent Right ascension
Unknown
Apparent Declination
Unknown
Sunlit
N/A
Visualization observer readout
Local Sidereal Time
03:45:11
Azimuth
Unknown
Elevation
Unknown
Doppler factor
Unknown
Orbital elements
Apogee altitude
155.525 km
Perigee altitude
141.143 km
Semi-major axis
6,526.471 km
Eccentricity
0.0011
Inclination
53.0111°
RAAN
63.9346°
Arg. of periapsis
283.0154°
True anomaly
181.63739°
Mean anomaly
181.641°
Eccentric anomaly
181.63919°
Mean motion
4.11648 °/min
Orbital period
87.45 mins
BSTAR
0.00025855
Loading maneuver chart data...
Computing Atmospheric mass density...
Loading historical data...
Loading historical data...
Loading historical data...
Loading historical data...
Loading historical data...
Loading historical data...
Loading historical data...

Documentation

Showing up to 5 results
|